Parkersburg, WV

7:15 PM EDT on October 13, 2019 (GMT -0400)
Wood County Wilson

Weather History for KPKB - September, 2019

Change the Weather History Date:

Friday, September 20, 2019

  Actual Average Record
Temperature  
Mean Temperature 71 °F 65 °F  
Max Temperature 87 °F 76 °F 91 °F (2002)
Min Temperature 55 °F 53 °F 38 °F (1956)
Degree Days  
Heating Degree Days 0 3  
Month to date heating degree days 0 27  
Since 1 July heating degree days 0 32  
Cooling Degree Days 6 2  
Month to date cooling degree days 162 88  
Year to date cooling degree days 1132 918  
Growing Degree Days 21 (Base 50)    
Moisture  
Dew Point 57 °F    
Average Humidity 63    
Maximum Humidity 87    
Minimum Humidity 44    
Precipitation  
Precipitation 0.00 in 0.10 in 1.19 in (1926)
Month to date precipitation 0.32 2.08  
Year to date precipitation 33.77 30.87  
Sea Level Pressure  
Sea Level Pressure 30.22 in    
Wind  
Wind Speed 3 mph ()    
Max Wind Speed 9 mph    
Max Gust Speed 14 mph    
Visibility 10.0 miles    
Events      
T = Trace of Precipitation, MM = Missing Value Source: Averaged Metar Reports

Daily Weather History Graph

Daily Weather History Graph

Search for Another Location

Airport or City:

Astronomy

Sep. 20, 2019 Rise Set
Actual Time 7:11 AM EDT 7:26 PM EDT
Civil Twilight 6:44 AM EDT 7:53 PM EDT
Nautical Twilight 6:13 AM EDT 8:24 PM EDT
Astronomical Twilight 5:41 AM EDT 8:56 PM EDT
Moon 11:17 PM EDT (9/20) 1:12 PM EDT (9/20)
Length of Visible Light 13h 08m
Length of Day
12h 15m
Waning Gibbous, 65% of the Moon is Illuminated
Sep 20
Waning Gibbous
Sep 21
Last Quarter
Sep 28
New
Oct 5
First Quarter
Oct 13
Full

Hourly Weather History & Observations

Time (EDT) Temp. Heat Index Dew Point Humidity Pressure Visibility Wind Dir Wind Speed Gust Speed Precip Events Conditions
12:53 AM 64.9 °F - 51.1 °F 61% 30.20 in 10.0 mi South 5.8 mph - N/A   Clear
1:53 AM 64.9 °F - 51.1 °F 61% 30.21 in 10.0 mi South 6.9 mph - N/A   Clear
2:53 AM 64.0 °F - 51.1 °F 63% 30.22 in 10.0 mi South 5.8 mph - N/A   Clear
3:53 AM 63.0 °F - 51.1 °F 65% 30.22 in 10.0 mi ESE 3.5 mph - N/A   Clear
4:53 AM 61.0 °F - 51.1 °F 70% 30.23 in 10.0 mi ESE 3.5 mph - N/A   Scattered Clouds
5:53 AM 55.9 °F - 52.0 °F 87% 30.24 in 10.0 mi Calm Calm - N/A   Partly Cloudy
6:53 AM 57.0 °F - 52.0 °F 83% 30.25 in 10.0 mi Calm Calm - N/A   Clear
7:53 AM 57.0 °F - 53.1 °F 87% 30.26 in 10.0 mi Calm Calm - N/A   Scattered Clouds
8:53 AM 63.0 °F - 52.0 °F 67% 30.27 in 10.0 mi Calm Calm - N/A   Partly Cloudy
9:53 AM 68.0 °F - 52.0 °F 56% 30.27 in 10.0 mi South 8.1 mph - N/A   Clear
10:53 AM 72.0 °F - 54.0 °F 53% 30.27 in 10.0 mi SSW 8.1 mph - N/A   Overcast
11:53 AM 73.9 °F - 55.9 °F 53% 30.26 in 10.0 mi SSW 5.8 mph - N/A   Mostly Cloudy
12:53 PM 78.1 °F - 57.9 °F 50% 30.24 in 10.0 mi Variable 4.6 mph - N/A   Clear
1:53 PM 81.0 °F 81.6 °F 60.1 °F 49% 30.22 in 10.0 mi Calm Calm - N/A   Clear
2:53 PM 82.9 °F 83.3 °F 61.0 °F 47% 30.19 in 10.0 mi Calm Calm - N/A   Clear
3:53 PM 84.0 °F 84.4 °F 61.0 °F 46% 30.18 in 10.0 mi Variable 4.6 mph - N/A   Partly Cloudy
4:53 PM 86.0 °F 86.3 °F 62.1 °F 44% 30.18 in 10.0 mi South 5.8 mph - N/A   Clear
5:53 PM 84.0 °F 84.5 °F 62.1 °F 47% 30.18 in 10.0 mi SW 5.8 mph - N/A   Clear
6:53 PM 82.9 °F 83.7 °F 62.1 °F 49% 30.18 in 10.0 mi Calm Calm - N/A   Clear
7:53 PM 75.9 °F - 64.0 °F 67% 30.18 in 10.0 mi Calm Calm - N/A   Clear
8:53 PM 72.0 °F - 64.9 °F 78% 30.20 in 10.0 mi ESE 3.5 mph - N/A   Scattered Clouds
9:53 PM 72.0 °F - 64.9 °F 78% 30.21 in 10.0 mi Calm Calm - N/A   Mostly Cloudy
10:53 PM 70.0 °F - 64.0 °F 81% 30.22 in 10.0 mi Calm Calm - N/A   Mostly Cloudy
11:53 PM 70.0 °F - 64.0 °F 81% 30.23 in 10.0 mi Calm Calm - N/A   Overcast